Retour au catalogue

ARIANE 2 DEB

LostGTO
NORAD 33550·DEBRIS·🇫🇷 France

Lancé Jan 27, 1989 depuis Guiana Space Centre

Loading…

TLE

PériméSource: Space-Track

Époque: Nov 18, 2013, 15:27 UTC

1 33550U 89006AS  13322.64391753  .00000261  00000-0  56049-1 0  9992
2 33550   9.3738 329.7427 6984762   6.4640 359.2596  2.22017252  6237

Suivez ARIANE 2 DEB en temps réel avec AllMySat

Download on the App Store